TimeEDT,TemperatureF,Dew PointF,Humidity,Sea Level PressureIn,VisibilityMPH,Wind Direction,Wind SpeedMPH,Gust SpeedMPH,PrecipitationIn,Events,Conditions,WindDirDegrees,DateUTC
12:53 AM,55.9,52.0,87,30.16,10.0,ESE,4.6,-,N/A,,Clear,120,2013-03-31 04:53:00
1:53 AM,57.0,51.1,81,30.15,10.0,SE,3.5,-,N/A,,Clear,130,2013-03-31 05:53:00
2:53 AM,57.0,51.1,81,30.14,10.0,Calm,Calm,-,N/A,,Clear,0,2013-03-31 06:53:00
3:53 AM,57.0,51.1,81,30.13,10.0,SE,4.6,-,N/A,,Clear,130,2013-03-31 07:53:00
4:53 AM,55.9,51.1,84,30.12,10.0,SE,9.2,-,N/A,,Clear,140,2013-03-31 08:53:00
5:53 AM,55.0,50.0,83,30.11,10.0,SE,9.2,-,N/A,,Clear,140,2013-03-31 09:53:00
6:53 AM,57.0,50.0,77,30.12,10.0,SE,4.6,-,N/A,,Clear,130,2013-03-31 10:53:00
7:53 AM,57.0,52.0,83,30.14,10.0,Calm,Calm,-,N/A,,Clear,0,2013-03-31 11:53:00
8:53 AM,63.0,55.0,75,30.16,10.0,SE,6.9,-,N/A,,Clear,140,2013-03-31 12:53:00
9:53 AM,70.0,55.0,59,30.15,10.0,South,10.4,-,N/A,,Clear,170,2013-03-31 13:53:00
10:53 AM,73.9,55.9,53,30.15,10.0,South,11.5,17.3,N/A,,Clear,170,2013-03-31 14:53:00
11:53 AM,75.9,55.0,48,30.14,10.0,South,11.5,-,N/A,,Clear,190,2013-03-31 15:53:00
12:53 PM,77.0,55.0,47,30.14,10.0,SW,12.7,-,N/A,,Clear,220,2013-03-31 16:53:00
1:53 PM,78.1,55.9,46,30.11,10.0,SSW,13.8,-,N/A,,Clear,200,2013-03-31 17:53:00
2:53 PM,78.1,55.9,46,30.08,10.0,SSW,16.1,-,N/A,,Clear,210,2013-03-31 18:53:00
3:53 PM,78.1,57.0,48,30.06,10.0,South,17.3,23.0,N/A,,Clear,190,2013-03-31 19:53:00
4:53 PM,75.0,57.9,55,30.04,10.0,SSW,13.8,-,N/A,,Clear,200,2013-03-31 20:53:00
5:53 PM,73.9,59.0,59,30.03,10.0,SSW,13.8,-,N/A,,Clear,200,2013-03-31 21:53:00
6:53 PM,72.0,60.1,66,30.03,10.0,SSW,9.2,-,N/A,,Clear,200,2013-03-31 22:53:00
7:53 PM,69.1,61.0,75,30.03,10.0,South,6.9,-,N/A,,Clear,190,2013-03-31 23:53:00
8:53 PM,68.0,61.0,78,30.03,10.0,SSW,5.8,-,N/A,,Clear,200,2013-04-01 00:53:00
9:53 PM,68.0,62.1,81,30.03,10.0,SSW,4.6,-,N/A,,Clear,200,2013-04-01 01:53:00
10:53 PM,66.9,61.0,81,30.04,10.0,South,5.8,-,N/A,,Clear,190,2013-04-01 02:53:00
11:53 PM,66.9,61.0,81,30.04,10.0,SSW,5.8,-,N/A,,Clear,200,2013-04-01 03:53:00